This is the latest recevied weather packets stored in our database for station/object EA7HQL-10. If no packets are shown the sender has not sent any weather packets the latest 10 day(s).
| Time | Temp. | Humidity | Pressure | Rain* | Wind** | Luminosity | Snow |
|---|---|---|---|---|---|---|---|
| 1778067895 | 21.67° C | 43% | 1008.7 hPa | 0 mm | - | - | - |
| 1778067600 | 21.67° C | 41% | 1008.8 hPa | 0 mm | - | - | - |
| 1778067320 | 22.22° C | 40% | 1008.6 hPa | 0 mm | - | - | - |
| 1778067040 | 22.22° C | 40% | 1008.7 hPa | 0 mm | - | - | - |
| 1778066795 | 21.67° C | 40% | 1008.6 hPa | 0 mm | - | - | - |
| 1778066515 | 21.67° C | 40% | 1008.9 hPa | 0 mm | - | - | - |
| 1778066240 | 22.22° C | 39% | 1008.8 hPa | 0 mm | - | - | - |
| 1778065960 | 21.67° C | 38% | 1008.8 hPa | 0 mm | - | - | - |
| 1778065710 | 21.67° C | 39% | 1008.8 hPa | 0 mm | - | - | - |
| 1778065425 | 21.67° C | 40% | 1008.8 hPa | 0 mm | - | - | - |
| 1778065170 | 21.67° C | 41% | 1008.9 hPa | 0 mm | - | - | - |
| 1778064905 | 21.67° C | 42% | 1008.8 hPa | 0 mm | - | - | - |
| 1778064640 | 21.67° C | 41% | 1008.6 hPa | 0 mm | - | - | - |
| 1778064350 | 21.67° C | 41% | 1008.8 hPa | 0 mm | - | - | - |
| 1778064065 | 22.22° C | 41% | 1009 hPa | 0 mm | - | - | - |
| 1778063775 | 21.67° C | 42% | 1008.9 hPa | 0 mm | - | - | - |
| 1778063530 | 21.67° C | 43% | 1008.9 hPa | 0 mm | - | - | - |
| 1778063265 | 20.56° C | 48% | 1008.9 hPa | 0 mm | - | - | - |
| 1778062971 | 20.56° C | 47% | 1009.1 hPa | 0 mm | - | - | - |
| 1778062673 | 21.11° C | 46% | 1009 hPa | 0 mm | - | - | - |
| 1778062395 | 20.56° C | 47% | 1008.9 hPa | 0 mm | - | - | - |
| 1778062140 | 20.56° C | 48% | 1009 hPa | 0 mm | - | - | - |
| 1778061895 | 20° C | 49% | 1009.1 hPa | 0 mm | - | - | - |
| 1778061635 | 20° C | 53% | 1008.9 hPa | 0 mm | - | - | - |
| 1778061370 | 20° C | 56% | 1009 hPa | 0 mm | - | - | - |
* Rain latest hour (hover to see other rain measurements)
** Current wind speed in m/s (hover to see current wind gust speed)